Regional Weather Roundup
Issued by NWS

Home | Current Version | Previous Version | Graphics & Text | Print | Product List | Glossary On
Versions: 1 2 3 4 5 6 7 8 9 10 11 12 13 14 15 16 17 18 19 20 21 22 23 24 25 26 27 28 29 30 31 32 33 34 35 36 37 38 39 40 41 42 43 44 45 46 47 48 49 50
000
ASUS43 KMKX 011221
RWRWI

WISCONSIN REGIONAL WEATHER ROUNDUP
NATIONAL WEATHER SERVICE MILWAUKEE/SULLIVAN WI
700 AM CDT SAT AUG 01 2015

NOTE: "FAIR" INDICATES FEW OR NO CLOUDS BELOW 12,000 FEET WITH NO
SIGNIFICANT WEATHER AND/OR OBSTRUCTIONS TO VISIBILITY.

WIZ001-002-006>008-014>016-023>028-011300-
NORTHWEST WISCONSIN

CITY           SKY/WX    TMP DP  RH WIND       PRES   REMARKS
SUPERIOR ARPT  SUNNY     54  51  90 CALM      29.94S
6HR MIN TEMP:  47; 6HR MAX TEMP:  60;

ASHLAND        SUNNY     57  52  83 W5        29.93S
6HR MIN TEMP:  51; 6HR MAX TEMP:  58;

HAYWARD        SUNNY     53  49  86 CALM      29.97S
6HR MIN TEMP:  48; 6HR MAX TEMP:  54;

SIREN          SUNNY     52  50  93 CALM      29.97S
6HR MIN TEMP:  50; 6HR MAX TEMP:  59;

CUMBERLAND     SUNNY     54  52  94 CALM      29.97F
RICE LAKE      SUNNY     55  53  94 CALM      29.98S
6HR MIN TEMP:  52; 6HR MAX TEMP:  56;

CHETEK         MOSUNNY   57  55  93 CALM      29.97S
6HR MIN TEMP:  54; 6HR MAX TEMP:  58;

LADYSMITH      SUNNY     57  53  84 CALM      29.98S
6HR MIN TEMP:  54; 6HR MAX TEMP:  60;

EAU CLAIRE     PTSUNNY   63  57  81 SW3       29.96S
6HR MIN TEMP:  60; 6HR MAX TEMP:  63;

MENOMONIE      MOSUNNY   61  58  92 CALM      29.97S
6HR MIN TEMP:  60; 6HR MAX TEMP:  65;

NEW RICHMOND   PTCLDY    60  58  95 CALM      29.97S
6HR MIN TEMP:  58; 6HR MAX TEMP:  64;

OSCEOLA        PTCLDY    59  59 100 CALM      29.99S
6HR MIN TEMP:  58; 6HR MAX TEMP:  62;

$$

WIZ003>005-009-010-017-018-011300-
NORTH CENTRAL WISCONSIN

CITY           SKY/WX    TMP DP  RH WIND       PRES   REMARKS
MANITOWISH WTR SUNNY     54  53  97 CALM      29.94R
6HR MIN TEMP:  46; 6HR MAX TEMP:  54;

ARBOR VITAE    SUNNY     59  54  84 NW3       29.93S
6HR MIN TEMP:  55; 6HR MAX TEMP:  59;

WOODRUFF       SUNNY     59  54  84 NW3       29.93S
6HR MIN TEMP:  55; 6HR MAX TEMP:  59;

RHINELANDER    SUNNY     57  51  80 W8        29.95R
6HR MIN TEMP:  50; 6HR MAX TEMP:  57;

EAGLE RIVER    SUNNY     56  54  93 W3        29.93R
6HR MIN TEMP:  47; 6HR MAX TEMP:  56;

LAND O LAKES   SUNNY     57  53  85 W3        29.94R
6HR MIN TEMP:  49; 6HR MAX TEMP:  57;

PHILLIPS       SUNNY     55  51  87 CALM      29.96R
6HR MIN TEMP:  50; 6HR MAX TEMP:  57;

TOMAHAWK       SUNNY     53  51  91 W5        29.95S
6HR MIN TEMP:  49; 6HR MAX TEMP:  55;

MEDFORD        SUNNY     56  52  86 CALM      29.96S
6HR MIN TEMP:  50; 6HR MAX TEMP:  59;

MERRILL        NOT AVBL
$$

WIZ029-030-035-036-043>047-011300-
CENTRAL WISCONSIN

CITY           SKY/WX    TMP DP  RH WIND       PRES   REMARKS
WAUSAU         SUNNY     60  52  74 VRB7      29.94S
6HR MIN TEMP:  57; 6HR MAX TEMP:  63;

MOSINEE        MOSUNNY   59  54  82 W6        29.96S
MARSHFIELD     PTSUNNY   60  52  74 NW6       29.97R
6HR MIN TEMP:  56; 6HR MAX TEMP:  60;

STEVENS POINT  MOSUNNY   59  51  74 W3        29.97R
6HR MIN TEMP:  58; 6HR MAX TEMP:  64;

WAUPACA        MOSUNNY   64  54  69 W6        29.96R
6HR MIN TEMP:  60; 6HR MAX TEMP:  64;

WAUTOMA        PTSUNNY   61  55  80 W5        29.97R
6HR MIN TEMP:  53; 6HR MAX TEMP:  61;

WISC RAPIDS    CLOUDY    60  52  74 NW3       29.98R
6HR MIN TEMP:  57; 6HR MAX TEMP:  61;

CAMP DOUGLAS   SUNNY     61  61 100 W5        29.97S
6HR MIN TEMP:  51; 6HR MAX TEMP:  61;

$$

WIZ011>013-019>022-031-037>040-048>050-011300-
NORTHEAST WISCONSIN

CITY           SKY/WX    TMP DP  RH WIND       PRES   REMARKS
ANTIGO         SUNNY     55  52  90 W6        29.95R
SHAWANO        SUNNY     61  54  77 W7        29.93R
6HR MIN TEMP:  59; 6HR MAX TEMP:  64;

OCONTO         SUNNY     60  56  87 W6        29.89S
6HR MIN TEMP:  55; 6HR MAX TEMP:  60;

STURGEON BAY   SUNNY     63  54  72 W7        29.92R
6HR MIN TEMP:  57; 6HR MAX TEMP:  63;

GREEN BAY      SUNNY     61  54  77 W7        29.93R
6HR MIN TEMP:  58; 6HR MAX TEMP:  65;

MANITOWOC      SUNNY     64  55  72 MISG      29.92S
6HR MIN TEMP:  62; 6HR MAX TEMP:  66;

APPLETON       MOSUNNY   59  52  77 W8        29.95R
CLINTONVILLE   MOSUNNY   61  52  72 W7        29.93S
OSHKOSH        SUNNY     62  53  72 W5        29.94R
6HR MIN TEMP:  60; 6HR MAX TEMP:  65;

$$

WIZ032>034-041-042-053>061-011300-
SOUTHWEST WISCONSIN

CITY           SKY/WX    TMP DP  RH WIND       PRES   REMARKS
LA CROSSE      CLOUDY    67  60  78 S3        29.97S
6HR MIN TEMP:  63; 6HR MAX TEMP:  67;

SPARTA         MOSUNNY   56  53  89 CALM      29.98F
6HR MIN TEMP:  50; 6HR MAX TEMP:  56;

VIROQUA        PTSUNNY   63  58  84 CALM      30.00S
6HR MIN TEMP:  59; 6HR MAX TEMP:  63;

BOSCOBEL       CLOUDY    62  59  90 SW5       30.00S
6HR MIN TEMP:  58; 6HR MAX TEMP:  62; 6HR PCP:  0.01;

PRAIRIE DU CHI MOSUNNY   61  57  88 CALM      30.00S
6HR MIN TEMP:  58; 6HR MAX TEMP:  65;

PLATTEVILLE    PTSUNNY   62  61  94 CALM      30.01S
6HR MIN TEMP:  59; 6HR MAX TEMP:  62;

$$

WIZ056-057-062-063-064-067-068-011300-
SOUTH CENTRAL WISCONSIN

CITY           SKY/WX    TMP DP  RH WIND       PRES   REMARKS
REEDSBURG      PTSUNNY   58  55  90 CALM      29.98S
BARABOO/DELLS  PTSUNNY   60  55  85 CALM      29.98S
6HR MIN TEMP:  56; 6HR MAX TEMP:  60;

LONE ROCK      PTSUNNY   57  54  89 CALM      30.00S
6HR MIN TEMP:  52; 6HR MAX TEMP:  57;

MINERAL POINT  MOSUNNY   63  59  88 CALM      30.01S
MADISON        MOSUNNY   65  55  70 NW7       29.98R
6HR MIN TEMP:  61; 6HR MAX TEMP:  67;

MIDDLETON      PTSUNNY   65  59  79 W5        29.99F
6HR MIN TEMP:  57; 6HR MAX TEMP:  65;

WATERTOWN      SUNNY     59  59 100 SW3       29.98R
6HR MIN TEMP:  54; 6HR MAX TEMP:  59;

MONROE         CLOUDY    63  55  77 W12       30.00S
JANESVILLE     MOSUNNY   61  57  88 CALM      29.99R
$$

WIZ051-052-058>065-066-070>072-011300-
SOUTHEAST WISCONSIN

CITY           SKY/WX    TMP DP  RH WIND       PRES   REMARKS
MILWAUKEE      SUNNY     68  51  54 W8        29.96S
6HR MIN TEMP:  66; 6HR MAX TEMP:  70;

WAUKESHA       SUNNY     61  54  77 CALM      29.98S
MILWAUKEE/TIMM SUNNY     63  52  67 W3        29.97S
RACINE         SUNNY     64  52  64 W7        29.98S
6HR MIN TEMP:  62; 6HR MAX TEMP:  66;

BURLINGTON     SUNNY     58  53  83 S6        29.97S
6HR MIN TEMP:  54; 6HR MAX TEMP:  61;

KENOSHA        SUNNY     63  54  72 W6        29.97S
6HR MIN TEMP:  57; 6HR MAX TEMP:  65;

FOND DU LAC    SUNNY     62  53  72 W5        29.95R
6HR MIN TEMP:  59; 6HR MAX TEMP:  62;

SHEBOYGAN      SUNNY     64  54  69 W8        29.94R
6HR MIN TEMP:  59; 6HR MAX TEMP:  65;

WEST BEND      SUNNY     63  50  63 W6        29.96R
JUNEAU         SUNNY     56  53  88 SW5       29.98R
6HR MIN TEMP:  54; 6HR MAX TEMP:  60;

$$

LSZ147-162-011300-
LAKE SUPERIOR

STATION/POSITION TIME  TEMP    WIND        PRES    WAVE
                       AIR SEA DIR/SP/G            HT/PER
                 (UTC) (F)     (DEG/KT/KT) (MB)    (FT/S)
W MID LAKE BUOY  1150   57 54  260/ 14/ 16 1011.4R   2/ 3
DEVILS ISLAND    1200   60     250/ 15/ 18 1012.6S
PORT WING        1140   58     170/  3/  6 1013.5S
SAXON HARBOR     1140   57                 1012.9R
$$

LMZ867-665-643>646-011300-
LAKE MICHIGAN

STATION/POSITION TIME  TEMP    WIND        PRES    WAVE
                       AIR SEA DIR/SP/G            HT/PER
                 (UTC) (F)     (DEG/KT/KT) (MB)    (FT/S)
CHAMBERS ISLAND  1100   63     230/  5/ 10 1011.5S


USA.gov is the U.S. government's official web portal to all federal, state and local government web resources and services.